#timestamp,LO_Frequency,Hit,StdDev 
1562004015.1,286047005.2,Y
1562004016.0,286047005.2,P
1562004035.8,286047005.9,P
1562004055.6,286047006.7,P
1562004075.5,286047010.8,Y
1562004095.3,286047003.0,P
1562004115.2,286047005.8,P
1562004135.9,286047005.2,P
1562004155.7,286047006.3,Y
1562004175.6,286047003.2,P
1562004195.4,286047003.1,P
1562004215.2,286047003.8,P
1562004235.1,286047004.6,Y
1562004236.0,286047004.6,P
1562004255.8,286047002.5,P
1562004275.7,286047002.1,N
1562004295.5,286047003.0,Y
1562004315.3,286047004.1,P
1562004335.2,286047001.4,P
1562004355.0,286047002.4,N
1562004355.9,286047002.4,N
1562004375.8,286047000.2,N
1562004395.6,286047001.4,N
1562004415.4,286047003.6,N
1562004435.3,286047003.5,N
1562004455.1,286047004.5,Y
1562004475.9,286047004.2,P
1562004495.7,286047003.8,P
1562004515.5,286047007.1,P
1562004535.4,286047006.4,Y
1562004555.2,286047001.5,P
1562004575.0,286047004.2,N
1562004575.9,286047004.2,P
1562004595.8,286047006.0,Y
1562004615.6,286046998.4,P
1562004635.5,286047000.2,N
1562004655.3,286047002.4,N
1562004675.1,286047003.7,N
1562004695.9,286047002.1,N
1562004715.7,286047002.8,N
1562004735.5,286047001.3,N
1562004755.4,286047004.0,N
1562004775.2,286047005.5,Y
1562004795.1,286047003.0,P
1562004796.0,286047003.0,P
1562004815.8,286047004.6,P
1562004835.6,286047007.3,Y
1562004855.5,286047003.5,P
1562004875.3,286047001.8,P
1562004895.2,286047003.9,P
1562004915.9,286047001.3,N
1562004935.7,286047003.6,Y
1562004955.6,286046999.7,P
1562004975.4,286047000.1,N
1562004995.2,286047000.5,N
1562005015.1,286047000.2,N
1562005016.0,286047000.2,N
1562005035.8,286047000.4,N
1562005055.7,286047000.9,N
1562005075.5,286046998.2,N
1562005095.3,286047002.3,N
1562005115.2,286047001.8,N
1562005135.0,286047003.6,N
1562005135.9,286047003.6,N
1562005155.8,286047003.6,N
1562005175.6,286047002.3,N
1562005195.4,286047005.4,Y
1562005215.3,286047004.1,P
1562005235.1,286047003.3,N
1562005255.8,286047004.3,P
1562005275.7,286047003.9,Y
1562005295.5,286047000.2,P
1562005315.4,286047000.6,N
1562005335.2,286047002.6,N
1562005355.0,286047001.4,N
1562005356.0,286047001.4,N
1562005375.8,286047002.9,N
1562005395.6,286047003.2,N
1562005415.5,286047003.9,Y
1562005435.3,286047001.4,P
1562005455.1,286047001.5,P
1562005475.9,286046998.6,P
1562005495.7,286046998.3,N
1562005515.6,286047000.8,N
1562005535.4,286047000.5,N
1562005555.2,286047001.5,N
1562005575.1,286046998.9,N
1562005576.0,286046998.9,N
1562005595.8,286047000.9,N
1562005615.7,286047000.6,N
1562005635.5,286046998.8,N
1562005655.3,286046996.8,N
1562005675.2,286046999.2,N
1562005695.0,286046999.2,N
1562005695.9,286046999.2,N
1562005715.7,286046998.9,N
1562005735.6,286046998.3,N
1562005755.4,286046998.9,N
1562005775.3,286046999.0,N
1562005795.1,286047001.1,N
1562005796.0,286047001.1,N
1562005815.8,286046998.6,N
1562005835.7,286046998.5,N
1562005855.5,286047000.3,N
1562005875.4,286047002.8,N
1562005895.2,286046999.6,N
1562005915.0,286047000.9,N
1562005915.9,286047000.9,N
1562005935.8,286047001.2,N
1562005955.6,286047000.7,N
1562005975.4,286046999.5,N
1562005995.3,286046998.6,N
1562006015.1,286046998.2,N
1562006035.9,286047000.9,N
1562006055.7,286047000.5,N
1562006075.5,286047000.6,N
1562006095.4,286047002.4,N
1562006115.2,286046998.2,N
1562006135.1,286047000.9,N
1562006136.0,286047000.9,N
1562006155.8,286047000.7,N
1562006175.6,286046996.6,N
1562006195.5,286046996.5,N
1562006215.3,286046998.0,N
1562006235.1,286046997.2,N
1562006255.9,286046999.6,N
1562006275.7,286047001.2,N
1562006295.6,286047000.4,N
1562006315.4,286047011.9,Y
1562006335.3,286046999.9,P
1562006355.1,286047000.8,P
1562006356.0,286047000.8,N
1562006375.8,286047000.9,N
1562006395.7,286047000.7,N
1562006415.5,286046998.1,Y
1562006435.4,286046997.5,P
1562006455.2,286046994.9,P
1562006475.0,286046997.4,N
1562006475.9,286046997.4,N
1562006495.8,286046995.0,N
1562006515.6,286046998.9,N
1562006535.4,286046996.7,N
1562006555.3,286047000.6,N
1562006575.1,286046996.8,N
1562006595.9,286046998.5,N
1562006615.7,286046997.8,N
1562006635.6,286046999.2,N
1562006655.5,286046998.4,N
1562006675.3,286047001.0,N
1562006695.1,286047000.7,N
1562006715.9,286047000.5,N
1562006735.7,286047002.1,N
1562006755.6,286046999.8,N
1562006775.4,286047002.3,N
1562006795.3,286047001.8,N
1562006815.1,286047001.6,N
1562006816.0,286047001.6,N
1562006835.8,286047003.0,N
1562006855.7,286047001.6,N
1562006875.5,286047004.3,N
1562006895.3,286047005.5,N
1562006915.2,286047005.7,N
1562006935.0,286047005.4,N
1562006935.9,286047005.4,N
1562006955.8,286047003.0,N
1562006975.6,286047005.1,N
1562006995.4,286047005.3,N
1562007015.3,286047005.4,N
1562007035.1,286047006.6,N
1562007055.9,286047006.4,N
1562007075.7,286047007.4,N
1562007095.5,286047007.0,N
1562007115.4,286047007.2,N
1562007135.2,286047007.3,N
1562007155.0,286047007.0,N
1562007155.9,286047007.0,N
1562007175.8,286047006.6,N
1562007195.6,286047005.1,N
1562007215.5,286047004.8,N
1562007235.3,286047003.1,N
1562007255.1,286047003.6,N
1562007275.9,286047003.9,N
1562007295.7,286047002.9,N
1562007315.5,286047004.9,N
1562007335.4,286047006.4,Y
1562007355.2,286047002.6,P
1562007375.1,286047001.5,N
1562007376.0,286047001.5,N
1562007395.8,286047002.6,N
1562007415.6,286047002.3,N
1562007435.5,286046999.8,N
1562007455.3,286047002.3,N
1562007475.1,286047000.4,N
1562007495.9,286047000.3,N
1562007515.7,286046998.7,N
1562007535.6,286046995.0,Y
1562007555.4,286046997.8,P
1562007575.2,286046995.8,N
1562007595.1,286046997.2,N
1562007596.0,286046997.2,N
